Location: Spring Creek
(38.2870°N, 100.2160°W)
Time: 18:35:51
(UTC+00:00)

Meteor 2-15 - Pass Details

Date: 04 October 2021
Orbit: 937 x 955 km, 82.5° (Epoch: 26 October)

Event Time Altitude Azimuth Distance (km) Brightness Sun altitude
Exits shadow 08:20:12 11° 16° (NNE) 2,593 7.1 -47.9°
Drops below altitude 10° 08:20:19 11° 16° (NNE) 2,637 7.2 -47.8°
Sets 08:22:58 0° 12° (NNE) 3,631 8.0 -47.5°
